iso_date,epoch_date,Year,Hour,Min,DOY,POS_DOY,Lat,Lon,BP,Ts,Ta,has_bp,has_ts,has_ta,BuoyID,Buoy_Type,Buoy_Owner,Logistics,Hemisphere
2020-07-16T00:09:56Z,1594858196,2020,0,10,198.0069,198.0069,78.64204,1.18779,-999.00,-999.00,-999.0,no,no,no,300534060658400,NOMAD,AWI/USIABP,MOSAiC,North
2020-07-16T00:20:00Z,1594858801,2020,0,20,198.0139,198.0139,78.64009,1.18677,-999.00,-999.00,-999.0,no,no,no,300534060658400,NOMAD,AWI/USIABP,MOSAiC,North
2020-07-16T00:29:57Z,1594859397,2020,0,30,198.0208,198.0208,78.6381,1.18569,-999.00,-999.00,-999.0,no,no,no,300534060658400,NOMAD,AWI/USIABP,MOSAiC,North
2020-07-16T00:40:01Z,1594860002,2020,0,40,198.0278,198.0278,78.63594,1.18388,-999.00,-999.00,-999.0,no,no,no,300534060658400,NOMAD,AWI/USIABP,MOSAiC,North
2020-07-16T00:49:58Z,1594860598,2020,0,50,198.0347,198.0347,78.63382,1.18215,-999.00,-999.00,-999.0,no,no,no,300534060658400,NOMAD,AWI/USIABP,MOSAiC,North
2020-07-16T01:00:02Z,1594861203,2020,1,0,198.0417,198.0417,78.63177,1.18069,-999.00,-999.00,-999.0,no,no,no,300534060658400,NOMAD,AWI/USIABP,MOSAiC,North
2020-07-16T01:09:59Z,1594861799,2020,1,10,198.0486,198.0486,78.62984,1.17996,-999.00,-999.00,-999.0,no,no,no,300534060658400,NOMAD,AWI/USIABP,MOSAiC,North
2020-07-16T01:20:03Z,1594862404,2020,1,20,198.0556,198.0556,78.6278,1.17886,-999.00,-999.00,-999.0,no,no,no,300534060658400,NOMAD,AWI/USIABP,MOSAiC,North
2020-07-16T01:30:00Z,1594863000,2020,1,30,198.0625,198.0625,78.62584,1.17871,-999.00,-999.00,-999.0,no,no,no,300534060658400,NOMAD,AWI/USIABP,MOSAiC,North
2020-07-16T01:39:56Z,1594863596,2020,1,40,198.0694,198.0694,78.62397,1.17831,-999.00,-999.00,-999.0,no,no,no,300534060658400,NOMAD,AWI/USIABP,MOSAiC,North
2020-07-16T01:50:00Z,1594864201,2020,1,50,198.0764,198.0764,78.62214,1.17821,-999.00,-999.00,-999.0,no,no,no,300534060658400,NOMAD,AWI/USIABP,MOSAiC,North
2020-07-16T01:59:57Z,1594864797,2020,2,0,198.0833,198.0833,78.62022,1.17852,-999.00,-999.00,-999.0,no,no,no,300534060658400,NOMAD,AWI/USIABP,MOSAiC,North
2020-07-16T02:10:01Z,1594865402,2020,2,10,198.0903,198.0903,78.6183,1.17875,-999.00,-999.00,-999.0,no,no,no,300534060658400,NOMAD,AWI/USIABP,MOSAiC,North
2020-07-16T02:19:58Z,1594865998,2020,2,20,198.0972,198.0972,78.61634,1.1792,-999.00,-999.00,-999.0,no,no,no,300534060658400,NOMAD,AWI/USIABP,MOSAiC,North
2020-07-16T02:30:02Z,1594866603,2020,2,30,198.1042,198.1042,78.61436,1.17998,-999.00,-999.00,-999.0,no,no,no,300534060658400,NOMAD,AWI/USIABP,MOSAiC,North
2020-07-16T02:39:59Z,1594867199,2020,2,40,198.1111,198.1111,78.61222,1.18023,-999.00,-999.00,-999.0,no,no,no,300534060658400,NOMAD,AWI/USIABP,MOSAiC,North
2020-07-16T02:50:03Z,1594867804,2020,2,50,198.1181,198.1181,78.61008,1.18081,-999.00,-999.00,-999.0,no,no,no,300534060658400,NOMAD,AWI/USIABP,MOSAiC,North
2020-07-16T03:00:00Z,1594868400,2020,3,0,198.125,198.125,78.60802,1.18159,-999.00,-999.00,-999.0,no,no,no,300534060658400,NOMAD,AWI/USIABP,MOSAiC,North
2020-07-16T03:09:56Z,1594868996,2020,3,10,198.1319,198.1319,78.6061,1.18304,-999.00,-999.00,-999.0,no,no,no,300534060658400,NOMAD,AWI/USIABP,MOSAiC,North
2020-07-16T03:20:00Z,1594869601,2020,3,20,198.1389,198.1389,78.60411,1.18446,-999.00,-999.00,-999.0,no,no,no,300534060658400,NOMAD,AWI/USIABP,MOSAiC,North
2020-07-16T03:29:57Z,1594870197,2020,3,30,198.1458,198.1458,78.60209,1.18601,-999.00,-999.00,-999.0,no,no,no,300534060658400,NOMAD,AWI/USIABP,MOSAiC,North
2020-07-16T03:40:01Z,1594870802,2020,3,40,198.1528,198.1528,78.6,1.18742,-999.00,-999.00,-999.0,no,no,no,300534060658400,NOMAD,AWI/USIABP,MOSAiC,North
2020-07-16T03:49:58Z,1594871398,2020,3,50,198.1597,198.1597,78.5981,1.18926,-999.00,-999.00,-999.0,no,no,no,300534060658400,NOMAD,AWI/USIABP,MOSAiC,North
2020-07-16T04:00:02Z,1594872003,2020,4,0,198.1667,198.1667,78.5961,1.19118,-999.00,-999.00,-999.0,no,no,no,300534060658400,NOMAD,AWI/USIABP,MOSAiC,North
2020-07-16T04:09:59Z,1594872599,2020,4,10,198.1736,198.1736,78.59416,1.19361,-999.00,-999.00,-999.0,no,no,no,300534060658400,NOMAD,AWI/USIABP,MOSAiC,North
2020-07-16T04:20:03Z,1594873204,2020,4,20,198.1806,198.1806,78.59229,1.19594,-999.00,-999.00,-999.0,no,no,no,300534060658400,NOMAD,AWI/USIABP,MOSAiC,North
2020-07-16T04:30:00Z,1594873800,2020,4,30,198.1875,198.1875,78.59034,1.19856,-999.00,-999.00,-999.0,no,no,no,300534060658400,NOMAD,AWI/USIABP,MOSAiC,North
2020-07-16T04:39:56Z,1594874396,2020,4,40,198.1944,198.1944,78.58846,1.2014,-999.00,-999.00,-999.0,no,no,no,300534060658400,NOMAD,AWI/USIABP,MOSAiC,North
2020-07-16T04:50:00Z,1594875001,2020,4,50,198.2014,198.2014,78.58644,1.2044,-999.00,-999.00,-999.0,no,no,no,300534060658400,NOMAD,AWI/USIABP,MOSAiC,North
2020-07-16T04:59:57Z,1594875597,2020,5,0,198.2083,198.2083,78.58445,1.20695,-999.00,-999.00,-999.0,no,no,no,300534060658400,NOMAD,AWI/USIABP,MOSAiC,North
2020-07-16T05:10:01Z,1594876202,2020,5,10,198.2153,198.2153,78.58253,1.20961,-999.00,-999.00,-999.0,no,no,no,300534060658400,NOMAD,AWI/USIABP,MOSAiC,North
2020-07-16T05:19:58Z,1594876798,2020,5,20,198.2222,198.2222,78.5806,1.21251,-999.00,-999.00,-999.0,no,no,no,300534060658400,NOMAD,AWI/USIABP,MOSAiC,North
2020-07-16T05:30:02Z,1594877403,2020,5,30,198.2292,198.2292,78.57861,1.21546,-999.00,-999.00,-999.0,no,no,no,300534060658400,NOMAD,AWI/USIABP,MOSAiC,North
2020-07-16T05:39:59Z,1594877999,2020,5,40,198.2361,198.2361,78.57673,1.21895,-999.00,-999.00,-999.0,no,no,no,300534060658400,NOMAD,AWI/USIABP,MOSAiC,North
2020-07-16T05:50:03Z,1594878604,2020,5,50,198.2431,198.2431,78.5749,1.22271,-999.00,-999.00,-999.0,no,no,no,300534060658400,NOMAD,AWI/USIABP,MOSAiC,North
2020-07-16T06:00:00Z,1594879200,2020,6,0,198.25,198.25,78.57305,1.22696,-999.00,-999.00,-999.0,no,no,no,300534060658400,NOMAD,AWI/USIABP,MOSAiC,North
2020-07-16T06:09:56Z,1594879796,2020,6,10,198.2569,198.2569,78.5712,1.23108,-999.00,-999.00,-999.0,no,no,no,300534060658400,NOMAD,AWI/USIABP,MOSAiC,North
2020-07-16T06:20:00Z,1594880401,2020,6,20,198.2639,198.2639,78.56928,1.23475,-999.00,-999.00,-999.0,no,no,no,300534060658400,NOMAD,AWI/USIABP,MOSAiC,North
2020-07-16T06:29:57Z,1594880997,2020,6,30,198.2708,198.2708,78.56743,1.23825,-999.00,-999.00,-999.0,no,no,no,300534060658400,NOMAD,AWI/USIABP,MOSAiC,North
2020-07-16T06:40:01Z,1594881602,2020,6,40,198.2778,198.2778,78.56564,1.24288,-999.00,-999.00,-999.0,no,no,no,300534060658400,NOMAD,AWI/USIABP,MOSAiC,North
2020-07-16T06:49:58Z,1594882198,2020,6,50,198.2847,198.2847,78.56386,1.24758,-999.00,-999.00,-999.0,no,no,no,300534060658400,NOMAD,AWI/USIABP,MOSAiC,North
2020-07-16T07:00:02Z,1594882803,2020,7,0,198.2917,198.2917,78.562,1.25194,-999.00,-999.00,-999.0,no,no,no,300534060658400,NOMAD,AWI/USIABP,MOSAiC,North
2020-07-16T07:09:59Z,1594883399,2020,7,10,198.2986,198.2986,78.5602,1.25629,-999.00,-999.00,-999.0,no,no,no,300534060658400,NOMAD,AWI/USIABP,MOSAiC,North
2020-07-16T07:20:03Z,1594884004,2020,7,20,198.3056,198.3056,78.55856,1.26111,-999.00,-999.00,-999.0,no,no,no,300534060658400,NOMAD,AWI/USIABP,MOSAiC,North
2020-07-16T07:30:00Z,1594884600,2020,7,30,198.3125,198.3125,78.55681,1.26608,-999.00,-999.00,-999.0,no,no,no,300534060658400,NOMAD,AWI/USIABP,MOSAiC,North
2020-07-16T07:39:56Z,1594885196,2020,7,40,198.3194,198.3194,78.55508,1.27111,-999.00,-999.00,-999.0,no,no,no,300534060658400,NOMAD,AWI/USIABP,MOSAiC,North
2020-07-16T07:50:00Z,1594885801,2020,7,50,198.3264,198.3264,78.55326,1.27664,-999.00,-999.00,-999.0,no,no,no,300534060658400,NOMAD,AWI/USIABP,MOSAiC,North
2020-07-16T07:59:57Z,1594886397,2020,8,0,198.3333,198.3333,78.55145,1.28172,-999.00,-999.00,-999.0,no,no,no,300534060658400,NOMAD,AWI/USIABP,MOSAiC,North
2020-07-16T08:10:01Z,1594887002,2020,8,10,198.3403,198.3403,78.54963,1.28673,-999.00,-999.00,-999.0,no,no,no,300534060658400,NOMAD,AWI/USIABP,MOSAiC,North
2020-07-16T08:19:58Z,1594887598,2020,8,20,198.3472,198.3472,78.54802,1.29292,-999.00,-999.00,-999.0,no,no,no,300534060658400,NOMAD,AWI/USIABP,MOSAiC,North
2020-07-16T08:30:02Z,1594888203,2020,8,30,198.3542,198.3542,78.5464,1.2992,-999.00,-999.00,-999.0,no,no,no,300534060658400,NOMAD,AWI/USIABP,MOSAiC,North
2020-07-16T08:39:59Z,1594888799,2020,8,40,198.3611,198.3611,78.54472,1.30569,-999.00,-999.00,-999.0,no,no,no,300534060658400,NOMAD,AWI/USIABP,MOSAiC,North
2020-07-16T08:50:03Z,1594889404,2020,8,50,198.3681,198.3681,78.54306,1.31237,-999.00,-999.00,-999.0,no,no,no,300534060658400,NOMAD,AWI/USIABP,MOSAiC,North
2020-07-16T09:00:00Z,1594890000,2020,9,0,198.375,198.375,78.54137,1.31896,-999.00,-999.00,-999.0,no,no,no,300534060658400,NOMAD,AWI/USIABP,MOSAiC,North
2020-07-16T09:09:56Z,1594890596,2020,9,10,198.3819,198.3819,78.53972,1.32574,-999.00,-999.00,-999.0,no,no,no,300534060658400,NOMAD,AWI/USIABP,MOSAiC,North
2020-07-16T09:20:00Z,1594891201,2020,9,20,198.3889,198.3889,78.53806,1.33226,-999.00,-999.00,-999.0,no,no,no,300534060658400,NOMAD,AWI/USIABP,MOSAiC,North
2020-07-16T09:29:57Z,1594891797,2020,9,30,198.3958,198.3958,78.53645,1.33941,-999.00,-999.00,-999.0,no,no,no,300534060658400,NOMAD,AWI/USIABP,MOSAiC,North
2020-07-16T09:40:01Z,1594892402,2020,9,40,198.4028,198.4028,78.5348,1.34629,-999.00,-999.00,-999.0,no,no,no,300534060658400,NOMAD,AWI/USIABP,MOSAiC,North
2020-07-16T09:49:58Z,1594892998,2020,9,50,198.4097,198.4097,78.53311,1.35351,-999.00,-999.00,-999.0,no,no,no,300534060658400,NOMAD,AWI/USIABP,MOSAiC,North
2020-07-16T10:00:02Z,1594893603,2020,10,0,198.4167,198.4167,78.53128,1.36015,-999.00,-999.00,-999.0,no,no,no,300534060658400,NOMAD,AWI/USIABP,MOSAiC,North
2020-07-16T10:09:59Z,1594894199,2020,10,10,198.4236,198.4236,78.52948,1.36713,-999.00,-999.00,-999.0,no,no,no,300534060658400,NOMAD,AWI/USIABP,MOSAiC,North
2020-07-16T10:20:03Z,1594894804,2020,10,20,198.4306,198.4306,78.52753,1.37367,-999.00,-999.00,-999.0,no,no,no,300534060658400,NOMAD,AWI/USIABP,MOSAiC,North
2020-07-16T10:30:00Z,1594895400,2020,10,30,198.4375,198.4375,78.52579,1.38051,-999.00,-999.00,-999.0,no,no,no,300534060658400,NOMAD,AWI/USIABP,MOSAiC,North
2020-07-16T10:39:56Z,1594895996,2020,10,40,198.4444,198.4444,78.52398,1.38711,-999.00,-999.00,-999.0,no,no,no,300534060658400,NOMAD,AWI/USIABP,MOSAiC,North
2020-07-16T10:50:00Z,1594896601,2020,10,50,198.4514,198.4514,78.52224,1.39411,-999.00,-999.00,-999.0,no,no,no,300534060658400,NOMAD,AWI/USIABP,MOSAiC,North
2020-07-16T10:59:57Z,1594897197,2020,11,0,198.4583,198.4583,78.52047,1.40148,-999.00,-999.00,-999.0,no,no,no,300534060658400,NOMAD,AWI/USIABP,MOSAiC,North
2020-07-16T11:10:01Z,1594897802,2020,11,10,198.4653,198.4653,78.51869,1.40835,-999.00,-999.00,-999.0,no,no,no,300534060658400,NOMAD,AWI/USIABP,MOSAiC,North
2020-07-16T11:19:58Z,1594898398,2020,11,20,198.4722,198.4722,78.51679,1.41507,-999.00,-999.00,-999.0,no,no,no,300534060658400,NOMAD,AWI/USIABP,MOSAiC,North
2020-07-16T11:30:02Z,1594899003,2020,11,30,198.4792,198.4792,78.51486,1.42156,-999.00,-999.00,-999.0,no,no,no,300534060658400,NOMAD,AWI/USIABP,MOSAiC,North
2020-07-16T11:39:59Z,1594899599,2020,11,40,198.4861,198.4861,78.51286,1.42774,-999.00,-999.00,-999.0,no,no,no,300534060658400,NOMAD,AWI/USIABP,MOSAiC,North
2020-07-16T11:50:03Z,1594900204,2020,11,50,198.4931,198.4931,78.51092,1.43393,-999.00,-999.00,-999.0,no,no,no,300534060658400,NOMAD,AWI/USIABP,MOSAiC,North
2020-07-16T12:00:00Z,1594900800,2020,12,0,198.5,198.5,78.50908,1.44041,-999.00,-999.00,-999.0,no,no,no,300534060658400,NOMAD,AWI/USIABP,MOSAiC,North
2020-07-16T12:09:56Z,1594901396,2020,12,10,198.5069,198.5069,78.50729,1.44714,-999.00,-999.00,-999.0,no,no,no,300534060658400,NOMAD,AWI/USIABP,MOSAiC,North
2020-07-16T12:20:00Z,1594902001,2020,12,20,198.5139,198.5139,78.50542,1.45363,-999.00,-999.00,-999.0,no,no,no,300534060658400,NOMAD,AWI/USIABP,MOSAiC,North
2020-07-16T12:29:57Z,1594902597,2020,12,30,198.5208,198.5208,78.50365,1.45953,-999.00,-999.00,-999.0,no,no,no,300534060658400,NOMAD,AWI/USIABP,MOSAiC,North
2020-07-16T12:40:01Z,1594903202,2020,12,40,198.5278,198.5278,78.50188,1.46534,-999.00,-999.00,-999.0,no,no,no,300534060658400,NOMAD,AWI/USIABP,MOSAiC,North
2020-07-16T12:49:58Z,1594903798,2020,12,50,198.5347,198.5347,78.50018,1.47137,-999.00,-999.00,-999.0,no,no,no,300534060658400,NOMAD,AWI/USIABP,MOSAiC,North
2020-07-16T13:00:02Z,1594904403,2020,13,0,198.5417,198.5417,78.49863,1.47769,-999.00,-999.00,-999.0,no,no,no,300534060658400,NOMAD,AWI/USIABP,MOSAiC,North
2020-07-16T13:09:59Z,1594904999,2020,13,10,198.5486,198.5486,78.49698,1.48393,-999.00,-999.00,-999.0,no,no,no,300534060658400,NOMAD,AWI/USIABP,MOSAiC,North
2020-07-16T13:20:03Z,1594905604,2020,13,20,198.5556,198.5556,78.4954,1.49034,-999.00,-999.00,-999.0,no,no,no,300534060658400,NOMAD,AWI/USIABP,MOSAiC,North
2020-07-16T13:30:00Z,1594906200,2020,13,30,198.5625,198.5625,78.494,1.4966,-999.00,-999.00,-999.0,no,no,no,300534060658400,NOMAD,AWI/USIABP,MOSAiC,North
2020-07-16T13:39:56Z,1594906796,2020,13,40,198.5694,198.5694,78.49249,1.50325,-999.00,-999.00,-999.0,no,no,no,300534060658400,NOMAD,AWI/USIABP,MOSAiC,North
2020-07-16T13:50:00Z,1594907401,2020,13,50,198.5764,198.5764,78.49113,1.51027,-999.00,-999.00,-999.0,no,no,no,300534060658400,NOMAD,AWI/USIABP,MOSAiC,North
2020-07-16T13:59:57Z,1594907997,2020,14,0,198.5833,198.5833,78.48983,1.51758,-999.00,-999.00,-999.0,no,no,no,300534060658400,NOMAD,AWI/USIABP,MOSAiC,North
2020-07-16T14:10:01Z,1594908602,2020,14,10,198.5903,198.5903,78.48843,1.52493,-999.00,-999.00,-999.0,no,no,no,300534060658400,NOMAD,AWI/USIABP,MOSAiC,North
2020-07-16T14:19:58Z,1594909198,2020,14,20,198.5972,198.5972,78.48714,1.53252,-999.00,-999.00,-999.0,no,no,no,300534060658400,NOMAD,AWI/USIABP,MOSAiC,North
2020-07-16T14:30:02Z,1594909803,2020,14,30,198.6042,198.6042,78.48562,1.53919,-999.00,-999.00,-999.0,no,no,no,300534060658400,NOMAD,AWI/USIABP,MOSAiC,North
2020-07-16T14:39:59Z,1594910399,2020,14,40,198.6111,198.6111,78.48405,1.54626,-999.00,-999.00,-999.0,no,no,no,300534060658400,NOMAD,AWI/USIABP,MOSAiC,North
2020-07-16T14:50:03Z,1594911004,2020,14,50,198.6181,198.6181,78.48254,1.55344,-999.00,-999.00,-999.0,no,no,no,300534060658400,NOMAD,AWI/USIABP,MOSAiC,North
2020-07-16T15:00:00Z,1594911600,2020,15,0,198.625,198.625,78.48107,1.56095,-999.00,-999.00,-999.0,no,no,no,300534060658400,NOMAD,AWI/USIABP,MOSAiC,North
2020-07-16T15:09:56Z,1594912196,2020,15,10,198.6319,198.6319,78.47957,1.56851,-999.00,-999.00,-999.0,no,no,no,300534060658400,NOMAD,AWI/USIABP,MOSAiC,North
2020-07-16T15:20:00Z,1594912801,2020,15,20,198.6389,198.6389,78.47798,1.57609,-999.00,-999.00,-999.0,no,no,no,300534060658400,NOMAD,AWI/USIABP,MOSAiC,North
2020-07-16T15:29:57Z,1594913397,2020,15,30,198.6458,198.6458,78.47634,1.5832,-999.00,-999.00,-999.0,no,no,no,300534060658400,NOMAD,AWI/USIABP,MOSAiC,North
2020-07-16T15:40:01Z,1594914002,2020,15,40,198.6528,198.6528,78.47474,1.59054,-999.00,-999.00,-999.0,no,no,no,300534060658400,NOMAD,AWI/USIABP,MOSAiC,North
2020-07-16T15:49:58Z,1594914598,2020,15,50,198.6597,198.6597,78.47324,1.59802,-999.00,-999.00,-999.0,no,no,no,300534060658400,NOMAD,AWI/USIABP,MOSAiC,North
2020-07-16T16:00:02Z,1594915203,2020,16,0,198.6667,198.6667,78.47191,1.60575,-999.00,-999.00,-999.0,no,no,no,300534060658400,NOMAD,AWI/USIABP,MOSAiC,North
2020-07-16T16:09:59Z,1594915799,2020,16,10,198.6736,198.6736,78.47029,1.61318,-999.00,-999.00,-999.0,no,no,no,300534060658400,NOMAD,AWI/USIABP,MOSAiC,North
2020-07-16T16:20:03Z,1594916404,2020,16,20,198.6806,198.6806,78.46874,1.62087,-999.00,-999.00,-999.0,no,no,no,300534060658400,NOMAD,AWI/USIABP,MOSAiC,North
2020-07-16T16:30:00Z,1594917000,2020,16,30,198.6875,198.6875,78.46706,1.6285,-999.00,-999.00,-999.0,no,no,no,300534060658400,NOMAD,AWI/USIABP,MOSAiC,North
2020-07-16T16:39:56Z,1594917596,2020,16,40,198.6944,198.6944,78.46529,1.63606,-999.00,-999.00,-999.0,no,no,no,300534060658400,NOMAD,AWI/USIABP,MOSAiC,North
2020-07-16T16:50:00Z,1594918201,2020,16,50,198.7014,198.7014,78.46331,1.6431,-999.00,-999.00,-999.0,no,no,no,300534060658400,NOMAD,AWI/USIABP,MOSAiC,North
2020-07-16T16:59:57Z,1594918797,2020,17,0,198.7083,198.7083,78.46143,1.64959,-999.00,-999.00,-999.0,no,no,no,300534060658400,NOMAD,AWI/USIABP,MOSAiC,North
2020-07-16T17:10:01Z,1594919402,2020,17,10,198.7153,198.7153,78.45956,1.65614,-999.00,-999.00,-999.0,no,no,no,300534060658400,NOMAD,AWI/USIABP,MOSAiC,North
2020-07-16T17:19:58Z,1594919998,2020,17,20,198.7222,198.7222,78.45779,1.66333,-999.00,-999.00,-999.0,no,no,no,300534060658400,NOMAD,AWI/USIABP,MOSAiC,North
2020-07-16T17:30:02Z,1594920603,2020,17,30,198.7292,198.7292,78.4561,1.67047,-999.00,-999.00,-999.0,no,no,no,300534060658400,NOMAD,AWI/USIABP,MOSAiC,North
2020-07-16T17:39:59Z,1594921199,2020,17,40,198.7361,198.7361,78.45449,1.67733,-999.00,-999.00,-999.0,no,no,no,300534060658400,NOMAD,AWI/USIABP,MOSAiC,North
2020-07-16T17:50:03Z,1594921804,2020,17,50,198.7431,198.7431,78.45292,1.68464,-999.00,-999.00,-999.0,no,no,no,300534060658400,NOMAD,AWI/USIABP,MOSAiC,North
2020-07-16T18:00:00Z,1594922400,2020,18,0,198.75,198.75,78.4513,1.69135,-999.00,-999.00,-999.0,no,no,no,300534060658400,NOMAD,AWI/USIABP,MOSAiC,North
2020-07-16T18:09:56Z,1594922996,2020,18,10,198.7569,198.7569,78.44949,1.69689,-999.00,-999.00,-999.0,no,no,no,300534060658400,NOMAD,AWI/USIABP,MOSAiC,North
2020-07-16T18:20:00Z,1594923601,2020,18,20,198.7639,198.7639,78.4478,1.70213,-999.00,-999.00,-999.0,no,no,no,300534060658400,NOMAD,AWI/USIABP,MOSAiC,North
2020-07-16T18:29:57Z,1594924197,2020,18,30,198.7708,198.7708,78.44622,1.70719,-999.00,-999.00,-999.0,no,no,no,300534060658400,NOMAD,AWI/USIABP,MOSAiC,North
2020-07-16T18:40:01Z,1594924802,2020,18,40,198.7778,198.7778,78.44478,1.71254,-999.00,-999.00,-999.0,no,no,no,300534060658400,NOMAD,AWI/USIABP,MOSAiC,North
2020-07-16T18:49:58Z,1594925398,2020,18,50,198.7847,198.7847,78.44327,1.71815,-999.00,-999.00,-999.0,no,no,no,300534060658400,NOMAD,AWI/USIABP,MOSAiC,North
2020-07-16T19:00:02Z,1594926003,2020,19,0,198.7917,198.7917,78.44171,1.72342,-999.00,-999.00,-999.0,no,no,no,300534060658400,NOMAD,AWI/USIABP,MOSAiC,North
2020-07-16T19:09:59Z,1594926599,2020,19,10,198.7986,198.7986,78.44012,1.72764,-999.00,-999.00,-999.0,no,no,no,300534060658400,NOMAD,AWI/USIABP,MOSAiC,North
2020-07-16T19:20:03Z,1594927204,2020,19,20,198.8056,198.8056,78.43864,1.73174,-999.00,-999.00,-999.0,no,no,no,300534060658400,NOMAD,AWI/USIABP,MOSAiC,North
2020-07-16T19:30:00Z,1594927800,2020,19,30,198.8125,198.8125,78.43717,1.73569,-999.00,-999.00,-999.0,no,no,no,300534060658400,NOMAD,AWI/USIABP,MOSAiC,North
2020-07-16T19:39:56Z,1594928396,2020,19,40,198.8194,198.8194,78.43571,1.73942,-999.00,-999.00,-999.0,no,no,no,300534060658400,NOMAD,AWI/USIABP,MOSAiC,North
2020-07-16T19:50:00Z,1594929001,2020,19,50,198.8264,198.8264,78.43444,1.7431,-999.00,-999.00,-999.0,no,no,no,300534060658400,NOMAD,AWI/USIABP,MOSAiC,North
2020-07-16T19:59:57Z,1594929597,2020,20,0,198.8333,198.8333,78.43315,1.74692,-999.00,-999.00,-999.0,no,no,no,300534060658400,NOMAD,AWI/USIABP,MOSAiC,North
2020-07-16T20:10:01Z,1594930202,2020,20,10,198.8403,198.8403,78.43173,1.75108,-999.00,-999.00,-999.0,no,no,no,300534060658400,NOMAD,AWI/USIABP,MOSAiC,North
2020-07-16T20:19:58Z,1594930798,2020,20,20,198.8472,198.8472,78.4304,1.75462,-999.00,-999.00,-999.0,no,no,no,300534060658400,NOMAD,AWI/USIABP,MOSAiC,North
2020-07-16T20:30:02Z,1594931403,2020,20,30,198.8542,198.8542,78.42905,1.75748,-999.00,-999.00,-999.0,no,no,no,300534060658400,NOMAD,AWI/USIABP,MOSAiC,North
2020-07-16T20:39:59Z,1594931999,2020,20,40,198.8611,198.8611,78.4278,1.76009,-999.00,-999.00,-999.0,no,no,no,300534060658400,NOMAD,AWI/USIABP,MOSAiC,North
2020-07-16T20:50:03Z,1594932604,2020,20,50,198.8681,198.8681,78.42659,1.76289,-999.00,-999.00,-999.0,no,no,no,300534060658400,NOMAD,AWI/USIABP,MOSAiC,North
2020-07-16T21:00:00Z,1594933200,2020,21,0,198.875,198.875,78.42543,1.7665,-999.00,-999.00,-999.0,no,no,no,300534060658400,NOMAD,AWI/USIABP,MOSAiC,North
2020-07-16T21:09:56Z,1594933796,2020,21,10,198.8819,198.8819,78.42433,1.76966,-999.00,-999.00,-999.0,no,no,no,300534060658400,NOMAD,AWI/USIABP,MOSAiC,North
2020-07-16T21:20:00Z,1594934401,2020,21,20,198.8889,198.8889,78.42339,1.77146,-999.00,-999.00,-999.0,no,no,no,300534060658400,NOMAD,AWI/USIABP,MOSAiC,North
2020-07-16T21:29:57Z,1594934997,2020,21,30,198.8958,198.8958,78.42249,1.77241,-999.00,-999.00,-999.0,no,no,no,300534060658400,NOMAD,AWI/USIABP,MOSAiC,North
2020-07-16T21:40:01Z,1594935602,2020,21,40,198.9028,198.9028,78.42155,1.77399,-999.00,-999.00,-999.0,no,no,no,300534060658400,NOMAD,AWI/USIABP,MOSAiC,North
2020-07-16T21:49:58Z,1594936198,2020,21,50,198.9097,198.9097,78.4207,1.77672,-999.00,-999.00,-999.0,no,no,no,300534060658400,NOMAD,AWI/USIABP,MOSAiC,North
2020-07-16T22:00:02Z,1594936803,2020,22,0,198.9167,198.9167,78.41977,1.77868,-999.00,-999.00,-999.0,no,no,no,300534060658400,NOMAD,AWI/USIABP,MOSAiC,North
2020-07-16T22:09:59Z,1594937399,2020,22,10,198.9236,198.9236,78.41901,1.78044,-999.00,-999.00,-999.0,no,no,no,300534060658400,NOMAD,AWI/USIABP,MOSAiC,North
2020-07-16T22:20:03Z,1594938004,2020,22,20,198.9306,198.9306,78.41833,1.78286,-999.00,-999.00,-999.0,no,no,no,300534060658400,NOMAD,AWI/USIABP,MOSAiC,North
2020-07-16T22:30:00Z,1594938600,2020,22,30,198.9375,198.9375,78.4177,1.78568,-999.00,-999.00,-999.0,no,no,no,300534060658400,NOMAD,AWI/USIABP,MOSAiC,North
2020-07-16T22:39:56Z,1594939196,2020,22,40,198.9444,198.9444,78.41717,1.78895,-999.00,-999.00,-999.0,no,no,no,300534060658400,NOMAD,AWI/USIABP,MOSAiC,North
2020-07-16T22:50:00Z,1594939801,2020,22,50,198.9514,198.9514,78.41665,1.79202,-999.00,-999.00,-999.0,no,no,no,300534060658400,NOMAD,AWI/USIABP,MOSAiC,North
2020-07-16T22:59:57Z,1594940397,2020,23,0,198.9583,198.9583,78.41628,1.79556,-999.00,-999.00,-999.0,no,no,no,300534060658400,NOMAD,AWI/USIABP,MOSAiC,North
2020-07-16T23:10:01Z,1594941002,2020,23,10,198.9653,198.9653,78.41597,1.79914,-999.00,-999.00,-999.0,no,no,no,300534060658400,NOMAD,AWI/USIABP,MOSAiC,North
2020-07-16T23:19:58Z,1594941598,2020,23,20,198.9722,198.9722,78.41567,1.80268,-999.00,-999.00,-999.0,no,no,no,300534060658400,NOMAD,AWI/USIABP,MOSAiC,North
2020-07-16T23:30:02Z,1594942203,2020,23,30,198.9792,198.9792,78.41533,1.80619,-999.00,-999.00,-999.0,no,no,no,300534060658400,NOMAD,AWI/USIABP,MOSAiC,North
2020-07-16T23:39:59Z,1594942799,2020,23,40,198.9861,198.9861,78.41486,1.80964,-999.00,-999.00,-999.0,no,no,no,300534060658400,NOMAD,AWI/USIABP,MOSAiC,North
2020-07-16T23:50:03Z,1594943404,2020,23,50,198.9931,198.9931,78.41448,1.81391,-999.00,-999.00,-999.0,no,no,no,300534060658400,NOMAD,AWI/USIABP,MOSAiC,North
2020-07-17T00:00:00Z,1594944000,2020,0,0,199.0,199.0,78.4142,1.818,-999.00,-999.00,-999.0,no,no,no,300534060658400,NOMAD,AWI/USIABP,MOSAiC,North
2020-07-17T00:09:56Z,1594944596,2020,0,10,199.0069,199.0069,78.41389,1.82268,-999.00,-999.00,-999.0,no,no,no,300534060658400,NOMAD,AWI/USIABP,MOSAiC,North
2020-07-17T00:20:00Z,1594945201,2020,0,20,199.0139,199.0139,78.41348,1.82802,-999.00,-999.00,-999.0,no,no,no,300534060658400,NOMAD,AWI/USIABP,MOSAiC,North
2020-07-17T00:29:57Z,1594945797,2020,0,30,199.0208,199.0208,78.41306,1.83321,-999.00,-999.00,-999.0,no,no,no,300534060658400,NOMAD,AWI/USIABP,MOSAiC,North
2020-07-17T00:40:01Z,1594946402,2020,0,40,199.0278,199.0278,78.41267,1.83877,-999.00,-999.00,-999.0,no,no,no,300534060658400,NOMAD,AWI/USIABP,MOSAiC,North
2020-07-17T00:49:58Z,1594946998,2020,0,50,199.0347,199.0347,78.41209,1.84427,-999.00,-999.00,-999.0,no,no,no,300534060658400,NOMAD,AWI/USIABP,MOSAiC,North
2020-07-17T01:00:02Z,1594947603,2020,1,0,199.0417,199.0417,78.41156,1.84977,-999.00,-999.00,-999.0,no,no,no,300534060658400,NOMAD,AWI/USIABP,MOSAiC,North
2020-07-17T01:09:59Z,1594948199,2020,1,10,199.0486,199.0486,78.41107,1.8556,-999.00,-999.00,-999.0,no,no,no,300534060658400,NOMAD,AWI/USIABP,MOSAiC,North
2020-07-17T01:20:03Z,1594948804,2020,1,20,199.0556,199.0556,78.41054,1.8609,-999.00,-999.00,-999.0,no,no,no,300534060658400,NOMAD,AWI/USIABP,MOSAiC,North
2020-07-17T01:30:00Z,1594949400,2020,1,30,199.0625,199.0625,78.41013,1.86622,-999.00,-999.00,-999.0,no,no,no,300534060658400,NOMAD,AWI/USIABP,MOSAiC,North
2020-07-17T01:39:56Z,1594949996,2020,1,40,199.0694,199.0694,78.40958,1.87144,-999.00,-999.00,-999.0,no,no,no,300534060658400,NOMAD,AWI/USIABP,MOSAiC,North